Regional Weather Roundup
Issued by NWS

Home | Current Version | Previous Version | Graphics & Text | Print | Product List | Glossary On
Versions: 1 2 3 4 5 6 7 8 9 10 11 12 13 14 15 16 17 18 19 20 21 22 23 24 25 26 27 28 29 30 31 32 33 34 35 36 37 38 39 40 41 42 43 44 45 46 47 48 49 50
000
ASUS43 KBIS 050710
RWRND

NORTH DAKOTA REGIONAL WEATHER ROUNDUP
NATIONAL WEATHER SERVICE BISMARCK ND
200 AM CDT THU MAY 05 2016

NOTE: "FAIR" INDICATES FEW OR NO CLOUDS BELOW 12,000 FEET WITH NO
SIGNIFICANT WEATHER AND/OR OBSTRUCTIONS TO VISIBILITY.


NDZ001>003-009>011-017-050800-
NORTHWEST NORTH DAKOTA

CITY           SKY/WX    TMP DP  RH WIND       PRES   REMARKS
WILLISTON      CLEAR     63  40  42 S6        29.86S
MINOT          CLEAR     68  42  38 SW12      29.85F
MINOT AFB      CLEAR     61  45  55 SW13      29.83F
$$

NDZ018>021-031>035-040>046-050800-
SOUTHWEST NORTH DAKOTA

CITY           SKY/WX    TMP DP  RH WIND       PRES   REMARKS
BISMARCK       CLEAR     63  45  51 SW10      29.94F
DICKINSON      CLEAR     55  41  59 S13       29.92F
GARRISON         N/A     54  42  64 SW5       29.90S
HETTINGER ARPT CLEAR     55  42  61 S9        29.99S
$$

NDZ004>008-012>016-024-026-027-054-050800-
NORTHEAST NORTH DAKOTA

CITY           SKY/WX    TMP DP  RH WIND       PRES   REMARKS
GRAND FORKS    CLEAR     54  30  40 S10       29.87F
GRND FRKS AFB  PTCLDY    57  28  33 SW12      29.87F
DEVILS LAKE    CLEAR     56  43  61 SW10      29.88F
$$

NDZ022-023-025-028>030-036>039-047>053-050800-
SOUTHEAST NORTH DAKOTA

CITY           SKY/WX    TMP DP  RH WIND       PRES   REMARKS
FARGO          CLEAR     53  29  39 S10       29.93S
JAMESTOWN      CLEAR     52  39  61 S9        29.92F
$$





USA.gov is the U.S. government's official web portal to all federal, state and local government web resources and services.